Total_Precipitation_Accumulation
0.94 0.77 0.70 0.39 0.48 0.51 0.46 0.37 0.28 0.27 0.28 0.20 0.32 0.44 0.54 0.18 0.10 0.36 0.74 0.57 0.90 0.95 0.97 0.96 0.74 0.78 0.83 0.69 0.61 0.55 0.52 0.57 0.57
0.87 0.76 0.48 0.28 0.33 0.41 0.50 0.45 0.20 0.25 0.30 0.22 0.29 0.37 0.23 0.10 0.23 0.37 0.44 0.76 1.08 0.93 0.74 0.60 0.56 0.81 1.04 0.79 0.72 0.81 0.85 0.84 0.66
1.15 0.81 0.60 0.35 0.27 0.29 0.55 0.73 0.59 0.41 0.25 0.30 0.36 0.34 0.18 0.17 0.31 0.27 0.49 0.74 0.64 0.57 0.62 0.58 0.54 0.66 0.84 0.70 0.66 0.64 0.67 0.69 0.77
1.00 0.82 0.66 0.52 0.42 0.45 0.54 0.69 0.70 0.59 0.43 0.41 0.38 0.31 0.19 0.14 0.27 0.28 0.38 0.54 0.47 0.57 0.46 0.39 0.50 0.53 0.55 0.53 0.48 0.50 0.53 0.59 0.62
0.94 0.58 0.56 0.74 0.72 0.62 0.54 0.52 0.56 0.57 0.51 0.47 0.35 0.30 0.35 0.19 0.26 0.29 0.33 0.51 0.48 0.46 0.48 0.40 0.47 0.54 0.50 0.42 0.37 0.51 0.57 0.57 0.59
0.50 0.52 0.47 0.58 0.89 0.81 0.75 0.62 0.58 0.49 0.42 0.47 0.41 0.31 0.11 0.10 0.18 0.29 0.40 0.44 0.46 0.38 0.37 0.30 0.45 0.51 0.51 0.43 0.44 0.57 0.42 0.29 0.34
0.28 0.35 0.66 0.50 0.66 0.89 1.08 0.84 0.75 0.49 0.20 0.14 0.21 0.21 0.16 0.20 0.22 0.22 0.23 0.71 0.90 0.61 0.43 0.46 0.39 0.35 0.41 0.39 0.39 0.43 0.48 0.39 0.40
0.25 0.24 0.34 0.72 0.67 0.66 0.85 0.78 0.51 0.35 0.31 0.27 0.22 0.17 0.25 0.30 0.35 0.35 0.31 0.90 0.90 0.70 0.93 0.89 0.52 0.40 0.42 0.43 0.43 0.55 0.51 0.50 0.41
0.33 0.38 0.49 0.56 0.86 0.74 0.82 0.90 0.88 0.86 0.88 0.89 0.73 0.58 0.43 0.37 0.46 0.52 0.54 0.61 1.07 0.73 0.86 1.14 0.95 0.79 0.69 0.57 0.62 0.60 0.55 0.46 0.36
0.54 0.58 0.77 0.84 0.97 0.65 0.56 0.76 1.05 1.15 1.11 1.16 1.05 1.04 0.94 0.88 0.91 0.75 0.91 0.75 0.90 1.14 0.95 1.06 1.02 1.08 0.98 1.08 0.94 0.76 0.53 0.42 0.35
0.92 0.90 0.84 0.85 0.95 1.13 1.15 1.13 0.90 0.67 0.90 1.02 1.18 1.15 1.31 1.18 1.10 1.00 1.12 1.00 0.67 0.81 1.22 1.17 1.10 1.21 1.18 1.21 1.24 1.18 0.90 0.67 0.52
0.83 0.90 0.91 0.81 0.93 1.10 1.09 1.05 1.27 1.27 1.19 0.93 0.92 1.00 1.19 1.38 1.48 1.53 1.38 1.15 0.98 0.80 0.94 1.40 1.47 1.34 1.31 1.40 1.49 1.59 1.61 1.62 1.38
0.58 0.67 0.74 0.91 1.02 0.89 0.87 0.93 0.87 0.79 0.92 1.02 1.05 1.02 0.94 0.87 0.99 1.30 1.61 1.61 1.26 0.97 0.82 1.15 1.69 1.79 1.57 1.87 1.99 2.15 1.79 2.08 2.08
0.54 0.61 0.64 0.95 1.23 1.38 1.25 1.00 0.94 1.08 1.00 0.81 0.85 0.97 1.02 1.08 1.15 1.03 0.96 1.06 1.14 0.80 0.62 0.71 1.03 1.73 2.21 2.21 2.36 2.55 2.77 2.20 2.33
0.51 0.64 0.79 0.96 1.08 1.13 1.55 1.63 1.49 1.34 1.29 1.43 1.45 1.17 0.82 0.80 0.95 1.08 1.12 1.16 1.51 1.87 1.63 1.29 1.25 1.09 1.50 2.25 2.65 3.06 4.16 4.72 3.11
0.69 0.61 0.76 0.91 0.97 1.18 1.19 1.39 1.50 1.46 1.56 2.07 1.95 1.68 1.68 1.55 1.24 1.19 1.41 1.41 1.32 1.61 2.44 2.99 3.26 2.99 2.68 1.97 2.34 3.34 5.06 5.94 5.31
1.36 0.94 0.80 0.82 0.92 1.03 1.13 1.25 1.34 1.19 1.36 1.49 1.57 1.61 1.40 1.33 1.36 1.64 1.99 2.19 2.64 2.49 2.54 2.54 3.02 3.15 3.38 2.79 2.54 2.55 2.95 3.91 3.98
2.25 2.13 1.86 1.40 1.15 1.27 1.40 1.77 2.32 2.14 1.87 2.09 2.22 1.73 1.26 0.84 0.94 1.17 1.09 1.34 1.49 1.65 1.81 1.72 1.61 1.51 1.46 1.33 1.38 1.99 1.83 2.28 2.91
3.68 3.23 2.90 2.53 2.09 1.94 2.16 2.34 2.50 2.77 2.75 2.82 2.69 2.31 1.85 1.50 1.06 0.82 1.00 0.94 1.01 0.95 1.01 0.93 0.97 1.02 1.09 1.13 1.04 1.22 2.07 2.51 2.98
2.96 3.33 3.43 3.35 3.58 3.53 3.28 3.04 2.99 2.92 2.70 2.49 2.52 2.50 2.26 1.88 1.54 1.08 0.83 0.80 0.69 0.62 0.67 0.72 0.78 0.84 1.04 1.14 1.29 1.26 1.41 1.88 2.08